Погода в Сент-Олбансе

Великобритания     51°45′02″N   0°20′23″E
темп.,
°C
ветер,
м/с
пор.,
м/с
влажн.,
%
обл.,
%
осадки,
мм/ч
давл.,
гПа
погр.,
м
16 мая, вс
вс1601:00+6юз3995100 0.6 1000191
04:00+5юз3797100 0.0 999149
07:00+7ююз3795100 0.0 999231
10:00+11юз5775100 0.1 9991143
13:00+11ююз6884100 1.1 998897
16:00+12ююз577899 0.7 9971038
19:00+11ююз469137 2.2 996561
22:00+9ююв2397100 0.6 99761
17 мая, пн
пн1701:00+9ссз2296100 0.8 99752
04:00+7сз369519 0.1 1000158
07:00+8зсз489313 0.1 1002231
10:00+11зсз4583100 0.0 1004589
13:00+15зсз456734 0.6 10051285
16:00+14зсз557299 1.9 10061037
19:00+12сз4684100 3.8 1007288
22:00+9сз4109399 1.1 1009313
18 мая, вт
вт1801:00+7зсз4109298 1.1 1010230
04:00+6зсз3892100 0.0 1012188
07:00+7з488999 0.0 1013243
10:00+12зсз567426 0.1 1014978
13:00+14зсз685351 0.3 10152029
16:00+14з686086 0.3 10151905
19:00+11з588360 1.6 1016642
22:00+9зюз389396 1.4 1017235
19 мая, ср
ср1901:00+8з359456 1.4 1018177
04:00+5з35955 0.0 101893
07:00+7з34925 0.0 1018171
10:00+12з457117 0.0 1019882
13:00+14з556478 1.3 10181424
16:00+14зсз5668100 1.7 10181246
19:00+12зсз488155 3.1 1019517
22:00+7зсз37894 0.2 1020122
20 мая, чт
чт2001:00+6зсз37910 0.2 1021125
04:00+5з34905 0.0 102172
07:00+7зюз369025 0.0 1022175
10:00+13юз466846 0.0 1022867
13:00+15юз5657100 0.0 10201539
16:00+14юз6862100 0.0 10191496
19:00+12ююз61176100 0.0 1018932
22:00+11ю61479100 0.1 1015710